Yellowstone, WY

3:15 AM MDT on October 18, 2017 (GMT -0600)
Yellowstone

Weather History for KP60 - May, 2014

Change the Weather History Date:

Saturday, May 10, 2014

  Actual Average Record
Temperature  
Mean Temperature 30 °F 38 °F  
Max Temperature 37 °F 50 °F 63 °F (2007)
Min Temperature 22 °F 27 °F 14 °F (1999)
Degree Days  
Heating Degree Days 35 27  
Month to date heating degree days 288 280  
Since 1 July heating degree days 10828 10531  
Cooling Degree Days 0 0  
Month to date cooling degree days 0 0  
Year to date cooling degree days 0 0  
Moisture  
Dew Point 25 °F    
Average Humidity 82    
Maximum Humidity 100    
Minimum Humidity 64    
Precipitation  
Precipitation 0.09 in 0.07 in 0.25 in (2005)
Month to date precipitation 1.31 0.70  
Year to date precipitation 14.75 7.51  
Sea Level Pressure  
Sea Level Pressure 29.92 in    
Wind  
Wind Speed 2 mph (East)    
Max Wind Speed 12 mph    
Max Gust Speed 19 mph    
T = Trace of Precipitation, MM = Missing Value Source: NWS Daily Summary

Daily Weather History Graph

Daily Weather History Graph

Search for Another Location

Airport or City:

Trip Planner

Search our weather history database for the weather conditions in past years. The results will help you decide how hot, cold, wet, or windy it might be!

Date:

Astronomy

May. 10, 2014 Rise Set
Actual Time 5:59 AM MDT 8:37 PM MDT
Civil Twilight 5:26 AM MDT 9:10 PM MDT
Nautical Twilight 4:44 AM MDT 9:52 PM MDT
Astronomical Twilight 3:57 AM MDT 10:40 PM MDT
Moon 4:26 PM MDT (5/10) 3:45 AM MDT (5/10)
Length of Visible Light 15h 43m
Length of Day
14h 37m
Waxing Gibbous, 82% of the Moon is Illuminated
May 10
Waxing Gibbous
May 14
Full
May 21
Last Quarter
May 28
New
Jun 5
First Quarter

Hourly Weather History & Observations

Time (MDT) Temp. Windchill Dew Point Humidity Pressure Visibility Wind Dir Wind Speed Gust Speed Precip Events Conditions
12:56 AM 27.0 °F - 25.0 °F 92% 29.93 in - Calm Calm - N/A   Unknown
1:56 AM 27.0 °F - 25.0 °F 92% 29.89 in - Calm Calm - N/A   Unknown
2:56 AM 27.0 °F - 26.1 °F 96% 29.91 in - Calm Calm - N/A   Unknown
3:56 AM 25.0 °F - 21.9 °F 88% 29.91 in - Calm Calm - N/A   Unknown
4:56 AM 25.0 °F - 24.1 °F 96% 29.91 in - Calm Calm - N/A   Unknown
5:56 AM 25.0 °F - 24.1 °F 96% 29.90 in - Calm Calm - N/A   Unknown
6:56 AM 25.0 °F - 23.0 °F 92% 29.90 in - Calm Calm - N/A   Unknown
7:56 AM 28.0 °F - 27.0 °F 96% 29.89 in - Calm Calm - N/A   Unknown
8:56 AM 28.0 °F 24.2 °F 26.1 °F 92% 29.88 in - Variable 3.5 mph - N/A   Unknown
9:56 AM 28.9 °F 25.2 °F 28.0 °F 96% 29.88 in - East 3.5 mph - 0.03 in   Unknown
10:56 AM 28.9 °F - 27.0 °F 92% 29.88 in - Calm Calm - 0.01 in   Unknown
11:56 AM 32.0 °F 28.7 °F 26.1 °F 79% 29.86 in - Variable 3.5 mph - 0.02 in   Unknown
12:56 PM 32.0 °F 27.5 °F 27.0 °F 82% 29.87 in - Variable 4.6 mph - N/A   Unknown
1:56 PM 35.1 °F 30.1 °F 26.1 °F 70% 29.86 in - Variable 5.8 mph - N/A   Unknown
2:56 PM 35.1 °F - 25.0 °F 67% 29.86 in - North - - N/A   Unknown
3:56 PM 35.1 °F 29.3 °F 26.1 °F 70% 29.88 in - Variable 6.9 mph - 0.01 in   Unknown
4:56 PM 28.9 °F - 27.0 °F 92% 29.94 in - Calm Calm - 0.01 in   Unknown
5:56 PM 32.0 °F 27.5 °F 24.1 °F 73% 29.94 in - Variable 4.6 mph - 0.01 in   Unknown
6:56 PM 30.9 °F 27.5 °F 23.0 °F 72% 29.96 in - Variable 3.5 mph - N/A   Unknown
7:56 PM 28.9 °F - 24.1 °F 82% 29.96 in - Calm Calm - N/A   Unknown
8:56 PM 27.0 °F - 24.1 °F 89% 30.00 in - Calm Calm - N/A   Unknown
9:56 PM 26.1 °F - 23.0 °F 88% 30.01 in - Calm Calm - N/A   Unknown
10:56 PM 25.0 °F - 23.0 °F 92% 30.03 in - Calm Calm - N/A   Unknown
11:56 PM 25.0 °F - 23.0 °F 92% 30.01 in - Calm Calm - N/A   Unknown